Home   Weather   Gmünd   Past weeks

Flag for Austria Past Weather in Gmünd, Lower Austria, Austria — Yesterday and Last 2 Weeks

Now
36 °F

Chilly.


Feels Like: 31 °F
Forecast: 26 / 36 °F
Wind: 6 mph from Northwest

Location: Retz

Current Time: Feb 24, 2017 at 10:55:41 pm

Latest Report: Feb 24, 2017 at 10:00 pm


Visibility: N/A

Pressure: 30.03 "Hg

Humidity: 71%

Dew Point: 27 °F

Location of GmündLocation

Past Weather in Gmünd — Graph

°F

Gmünd Temperature Yesterday

Maximum temperature yesterday: 60 °F (at 3:00 pm)
Minimum temperature yesterday: 45 °F (at 7:00 am)
Average temperature yesterday: 52 °F

High & Low Weather Summary for the Past Weeks

 TemperatureHumidityPressure
High60 °F (Feb 23, 3:00 pm)100% (Feb 17, 3:00 am)30.65 "Hg (Feb 17, 3:00 am)
Low25 °F (Feb 9, 11:00 pm)39% (Feb 23, 3:00 pm)29.41 "Hg (Feb 24, 2:00 am)
Average38 °F78%30.23 "Hg
* Reported Feb 9 9:00 pm — Feb 24 9:00 pm, Gmünd, Weather by CustomWeather, © 2017

Note: Actual official high and low records may vary slightly from our data, if they occured in-between our weather recording intervals... More about our weather records

Advertising

Gmünd Weather History for the Previous 24 Hours

Scroll right to see more
 ConditionsComfort  
Time TempWeatherWind HumidityBarometerVisibility
9:00 pm
Fri, Feb 24
37 °FChilly.8 mph69%29.99 "HgN/A
8:00 pm38 °FChilly.8 mph67%29.95 "HgN/A
7:00 pm38 °FChilly.6 mph67%29.90 "HgN/A
6:00 pm40 °FQuite cool.9 mph60%29.87 "HgN/A
5:00 pm42 °FQuite cool.10 mph59%29.83 "HgN/A
4:00 pm46 °FCool.8 mph48%29.78 "HgN/A
3:00 pm48 °FCool.10 mph42%29.77 "HgN/A
2:00 pm48 °FCool.10 mph41%29.75 "HgN/A
1:00 pm48 °FPartly sunny.9 mph44%29.75 "Hg22 mi
12:00 pm48 °FCool.14 mph39%29.73 "HgN/A
10:00 am47 °FCool.9 mph47%29.69 "HgN/A
9:00 am47 °FCool.9 mph51%29.66 "HgN/A
8:00 am46 °FCool.12 mph53%29.62 "HgN/A
7:00 am46 °FScattered clouds.10 mph55%29.57 "Hg9 mi
6:00 am48 °FCool.13 mph55%29.50 "HgN/A
5:00 am51 °FCool.8 mph59%29.50 "HgN/A
4:00 am52 °FCool.9 mph56%29.44 "HgN/A
3:00 am54 °FCool.10 mph48%29.44 "HgN/A
2:00 am54 °FCool.7 mph42%29.41 "HgN/A
12:00 am50 °FCool.3 mph49%29.44 "HgN/A
11:00 pm
Thu, Feb 23
49 °FCool.5 mph53%29.44 "HgN/A
10:00 pm50 °FCool.5 mph53%29.44 "HgN/A
Weather by CustomWeather, © 2017

See weather overviewHow to use our weather pages